Wind_Speed
23 26 24 20 17 15 22 20 17 21 20 16 15 21 10 15 10 7 9 5 3 1 2 7 10 14 14 12 10 8 9 9 7 7 6 7 9 8 6 6 4 1 2 2
19 15 21 24 22 20 23 25 24 24 21 19 20 23 20 12 12 7 2 6 6 5 2 5 11 11 12 11 10 9 7 6 6 5 4 6 7 8 8 6 3 1 4 7
16 10 20 26 26 24 25 26 22 27 26 22 19 27 29 20 17 8 4 1 6 5 4 3 3 7 8 10 11 10 10 7 6 5 5 6 7 7 7 6 6 5 7 9
17 19 22 24 29 29 27 21 25 31 26 25 31 38 29 23 18 8 6 2 4 6 5 3 2 1 4 6 7 9 10 10 8 7 8 8 9 9 9 9 8 7 10 13
13 21 22 23 21 28 21 29 30 31 32 29 31 32 23 30 20 10 14 6 5 5 6 3 2 3 1 6 9 10 8 8 8 9 10 11 12 11 11 12 11 11 12 11
22 25 25 21 24 27 24 34 36 36 35 46 38 36 24 32 21 10 13 12 13 8 8 4 3 9 6 9 13 15 14 14 12 11 12 14 15 13 14 15 13 12 12 7
26 27 26 26 26 29 29 37 41 46 51 49 39 41 27 25 26 16 16 13 15 12 8 11 14 9 10 11 15 18 18 17 18 16 15 17 17 17 17 15 14 13 10 6
35 33 27 25 26 27 32 36 45 51 52 47 43 49 30 19 17 10 9 15 12 16 12 23 23 12 12 9 11 15 18 19 19 19 18 21 22 20 19 15 15 13 9 8
38 38 28 33 28 31 31 41 36 45 47 51 45 49 39 25 24 16 16 25 21 16 8 12 13 12 6 7 12 13 14 15 18 19 20 20 24 23 22 17 14 11 9 7
40 42 35 35 36 39 38 32 38 42 46 52 47 50 43 35 27 24 18 21 23 22 18 16 20 21 8 8 11 15 15 13 12 13 16 18 22 22 20 15 14 11 9 6
43 47 38 41 49 41 40 41 42 41 41 41 38 38 39 35 31 26 28 25 24 23 23 18 22 18 17 10 12 16 18 17 14 12 11 12 18 19 16 15 17 13 10 4
55 48 50 50 45 45 47 43 43 45 42 40 36 34 22 36 39 32 27 26 22 25 24 25 24 21 19 10 13 17 17 18 15 11 9 9 11 13 19 19 19 13 7 4
62 61 57 55 55 55 57 49 47 44 43 45 45 36 23 29 43 44 36 30 25 27 28 32 27 24 21 15 18 20 18 16 15 13 8 8 9 13 19 21 18 15 9 7
68 68 67 63 57 55 56 54 54 51 52 47 47 40 26 28 45 46 41 40 35 36 35 44 29 33 24 20 22 22 19 19 18 15 10 7 10 14 16 18 19 15 13 11
73 73 75 71 65 55 56 56 55 56 53 55 42 44 33 27 46 47 39 34 31 28 48 44 45 29 30 25 28 23 26 23 21 20 16 13 15 16 16 17 18 17 15 14
73 77 77 78 73 66 57 60 59 56 53 53 50 45 36 34 41 52 44 42 29 36 36 51 33 27 31 28 30 23 22 24 23 21 21 20 20 18 15 18 19 19 19 17
76 79 79 77 73 66 52 67 65 61 57 54 55 43 36 38 35 53 59 48 37 31 37 32 34 32 32 34 35 31 28 26 28 29 24 26 25 22 21 20 22 20 23 25
84 77 78 76 72 65 71 61 65 61 56 54 54 36 37 39 37 40 52 52 45 36 44 43 38 36 38 41 38 39 41 38 31 28 28 29 30 28 25 24 23 23 24 22
82 75 68 73 67 65 67 65 57 67 60 48 53 53 44 37 34 36 50 58 52 47 43 40 41 42 38 45 39 42 44 38 32 30 31 28 30 32 30 25 25 26 28 28
87 77 68 54 67 62 68 62 59 53 64 56 53 53 50 40 36 41 41 55 62 58 55 46 49 42 41 41 48 46 44 43 42 34 29 31 31 35 34 31 28 32 33 34
84 79 66 56 58 68 67 66 57 52 55 59 57 53 49 44 39 38 37 46 56 62 62 59 56 54 49 48 57 43 41 43 42 37 36 38 36 37 36 37 34 36 39 39
66 77 71 64 49 55 68 65 55 56 52 56 55 56 50 45 42 41 37 37 52 60 63 62 57 51 49 51 55 53 53 49 40 43 43 42 38 41 44 43 40 38 42 44
48 62 77 56 45 55 62 42 41 53 55 54 59 58 53 51 47 47 46 42 39 47 58 66 67 64 58 55 58 59 63 55 51 52 46 46 43 41 44 45 45 41 41 42
50 63 68 52 38 56 69 70 40 57 60 56 59 62 60 56 55 54 52 44 43 45 47 51 53 54 60 66 71 68 63 60 53 52 49 43 38 41 40 43 48 45 44 42
54 49 63 53 38 59 65 58 67 60 63 65 65 59 59 54 55 54 52 52 49 47 50 47 49 51 56 62 63 65 64 66 68 61 54 55 57 52 51 49 52 49 50 51
46 34 66 53 47 54 62 65 59 56 59 67 69 65 60 54 52 50 56 49 47 45 42 43 48 52 54 52 64 61 59 57 64 65 64 56 56 51 54 56 63 62 59 39
Wind_Direction
245 238 235 243 234 213 213 221 219 184 193 217 250 277 322 309 338 8 15 330 265 225 204 157 160 157 168 171 177 178 174 177 183 175 175 172 170 168 175 182 164 217 315 330
243 252 232 229 232 209 214 204 214 224 214 216 229 265 279 279 282 306 307 318 260 131 219 206 164 172 177 182 184 195 203 195 188 191 181 173 176 178 190 198 215 270 295 320
242 252 246 231 227 220 208 208 198 214 216 216 212 251 261 278 272 319 108 46 238 160 166 241 230 201 208 206 201 197 205 222 225 206 218 204 207 201 207 221 231 251 290 301
234 227 230 229 226 224 214 200 195 205 225 222 211 226 254 255 247 273 170 164 311 195 168 162 200 269 278 269 253 226 211 219 235 229 228 227 226 230 231 238 255 279 295 300
242 239 240 242 246 233 202 205 199 213 222 224 222 232 220 228 239 242 239 236 227 270 196 148 195 125 311 277 271 267 247 234 235 238 241 235 234 239 243 254 264 282 299 302
237 235 237 236 239 241 215 204 206 209 215 228 226 229 218 221 236 238 242 249 250 211 273 266 245 263 282 274 269 265 255 248 245 257 259 252 249 245 250 259 269 279 290 290
244 245 241 236 233 232 222 214 207 212 214 229 224 231 225 221 223 245 245 260 233 238 280 264 267 263 277 277 270 266 260 255 249 244 257 261 260 254 251 258 270 270 274 255
235 234 241 243 240 242 237 225 223 215 220 229 224 233 232 215 217 209 285 291 270 269 284 292 249 241 265 289 280 272 261 257 253 248 250 260 262 255 254 260 266 266 246 227
242 239 229 232 234 235 235 232 228 225 228 234 236 236 236 222 210 226 240 252 268 276 279 305 254 280 280 301 303 272 261 260 257 251 251 255 260 257 258 264 264 254 220 193
239 237 223 229 229 228 228 233 228 229 226 231 239 238 245 236 221 221 230 251 266 278 280 302 310 261 304 276 296 287 279 272 266 262 255 246 249 248 247 243 241 222 184 194
236 239 220 221 228 228 227 226 229 233 235 233 242 247 237 237 223 221 236 233 256 271 272 278 289 284 267 255 271 282 277 277 277 270 262 255 246 244 224 218 215 199 193 230
216 228 225 227 226 231 228 231 231 235 241 247 252 252 238 225 217 216 217 232 241 256 268 265 268 264 264 253 259 276 270 264 267 276 269 266 251 228 201 199 198 202 223 222
227 229 225 219 219 223 227 234 236 232 239 242 248 255 221 222 213 222 219 232 233 250 249 255 245 248 267 263 263 271 247 252 258 269 261 271 238 196 184 191 197 199 225 226
226 228 229 224 227 225 230 230 234 235 234 239 251 257 239 218 214 222 227 225 230 237 239 241 229 239 243 253 262 257 238 250 261 267 260 236 217 201 190 199 200 216 214 219
224 231 229 233 226 218 230 232 234 237 243 246 252 251 246 224 213 218 222 229 231 248 232 234 232 228 228 241 250 241 242 237 257 273 270 243 229 219 211 215 220 225 220 220
218 225 224 232 226 217 218 226 232 236 238 244 247 244 241 236 218 214 220 230 226 250 245 247 246 249 231 231 238 234 240 239 253 263 268 264 250 238 224 228 230 229 234 244
214 223 225 226 226 224 218 221 225 231 236 240 242 241 233 238 225 220 220 229 227 239 258 259 266 248 236 235 237 236 241 238 255 263 262 269 265 254 240 241 247 239 240 244
210 217 222 225 225 227 225 212 218 225 229 234 239 237 233 232 235 222 221 222 230 230 242 249 243 238 235 233 234 243 245 243 252 258 267 255 257 259 251 242 245 247 246 255
212 215 215 219 219 227 229 226 214 215 220 221 235 242 239 226 227 227 222 223 225 221 236 228 239 246 240 235 229 237 242 254 260 260 256 252 246 253 259 253 246 248 249 255
219 218 216 216 214 217 226 233 232 220 221 218 227 235 243 242 226 232 235 223 229 234 230 226 234 249 244 258 241 238 243 247 253 250 250 257 240 241 254 259 254 246 249 252
224 220 215 202 204 212 220 222 232 230 220 219 223 230 235 238 235 233 238 231 230 235 239 238 244 249 251 250 246 246 255 247 250 248 250 250 244 237 244 249 251 252 247 249
220 219 214 202 192 197 212 215 223 230 218 219 219 223 227 232 232 235 238 246 236 236 240 239 241 246 249 248 251 244 253 254 255 257 246 243 246 236 240 247 249 258 253 248
218 217 209 204 192 189 197 198 213 215 218 220 220 221 223 225 230 235 245 248 241 242 244 243 245 244 239 238 246 255 259 255 250 247 254 249 243 240 239 244 251 251 246 247
219 210 208 193 179 194 202 213 199 207 214 217 223 225 229 230 238 244 246 243 245 244 240 239 241 246 249 252 248 250 255 257 257 251 245 240 248 250 245 245 247 247 244 249
218 207 207 193 185 196 205 216 219 213 215 221 227 228 235 239 239 239 242 246 249 248 245 245 238 244 245 247 249 251 251 252 254 249 241 242 246 251 254 250 248 246 245 242
215 214 197 188 187 193 208 217 220 223 218 221 226 230 232 237 241 244 247 248 244 250 246 244 250 254 252 252 247 245 245 242 241 242 243 235 237 241 251 244 242 238 237 232
Height
5864 5866 5870 5873 5877 5882 5885 5889 5892 5894 5893 5892 5896 5898 5898 5898 5900 5901 5905 5906 5906 5907 5909 5911 5910 5911 5913 5915 5916 5917 5920 5921 5923 5924 5924 5924 5925 5926 5927 5928 5928 5929 5929 5930
5859 5861 5866 5868 5871 5876 5879 5883 5889 5891 5891 5891 5893 5897 5895 5895 5897 5900 5903 5905 5907 5906 5909 5910 5912 5912 5913 5914 5916 5917 5918 5920 5921 5922 5923 5924 5925 5926 5927 5927 5927 5928 5929 5928
5856 5861 5861 5863 5866 5870 5874 5878 5885 5889 5887 5887 5889 5893 5892 5894 5893 5897 5901 5905 5907 5906 5907 5909 5911 5912 5913 5915 5916 5917 5917 5918 5919 5920 5921 5922 5924 5926 5926 5926 5927 5928 5928 5928
5853 5854 5855 5856 5859 5863 5868 5877 5882 5883 5881 5884 5884 5888 5890 5892 5892 5893 5898 5903 5906 5906 5906 5907 5908 5909 5910 5912 5914 5916 5917 5917 5917 5918 5920 5921 5923 5924 5924 5925 5926 5927 5926 5926
5852 5849 5851 5852 5856 5859 5868 5870 5874 5878 5878 5879 5878 5880 5887 5890 5889 5889 5895 5901 5903 5904 5903 5904 5906 5906 5907 5908 5910 5912 5915 5915 5916 5917 5919 5920 5921 5922 5923 5924 5924 5925 5924 5923
5843 5842 5844 5849 5851 5853 5862 5862 5867 5870 5871 5864 5873 5875 5878 5880 5887 5890 5891 5896 5899 5901 5902 5902 5903 5905 5905 5906 5906 5907 5910 5913 5914 5915 5916 5917 5918 5919 5920 5921 5922 5922 5922 5921
5835 5836 5839 5841 5844 5846 5850 5854 5855 5857 5854 5852 5867 5866 5872 5876 5881 5885 5887 5891 5893 5897 5900 5899 5902 5902 5903 5903 5904 5904 5905 5907 5910 5912 5913 5914 5915 5916 5917 5918 5919 5920 5920 5919
5823 5827 5832 5838 5838 5842 5842 5845 5845 5844 5847 5852 5860 5851 5862 5872 5875 5878 5883 5885 5888 5892 5895 5897 5897 5900 5900 5900 5901 5901 5901 5902 5904 5907 5908 5908 5910 5912 5913 5915 5916 5916 5916 5915
5814 5818 5825 5824 5831 5833 5837 5831 5843 5843 5847 5847 5849 5850 5859 5864 5867 5872 5876 5880 5884 5887 5889 5895 5896 5897 5896 5897 5898 5899 5898 5899 5900 5901 5902 5904 5904 5906 5908 5910 5911 5912 5911 5912
5804 5807 5813 5817 5818 5818 5822 5832 5831 5830 5833 5834 5839 5843 5847 5858 5865 5868 5871 5873 5875 5880 5885 5891 5890 5893 5894 5894 5894 5896 5896 5897 5897 5897 5898 5898 5898 5900 5903 5906 5907 5908 5909 5910
5790 5792 5805 5804 5800 5812 5815 5815 5819 5824 5826 5827 5832 5829 5843 5853 5858 5859 5862 5865 5870 5875 5879 5884 5888 5891 5891 5890 5891 5892 5893 5893 5894 5895 5895 5894 5893 5894 5898 5901 5902 5904 5906 5907
5766 5777 5784 5786 5799 5802 5802 5806 5810 5811 5817 5820 5825 5820 5839 5845 5851 5852 5855 5859 5863 5869 5872 5876 5883 5885 5885 5885 5887 5889 5889 5889 5891 5891 5891 5891 5890 5890 5893 5896 5898 5900 5901 5903
5749 5759 5765 5774 5778 5779 5782 5797 5803 5805 5809 5808 5811 5816 5834 5836 5843 5845 5850 5853 5856 5862 5864 5868 5874 5875 5878 5880 5882 5885 5885 5886 5886 5888 5888 5888 5888 5888 5889 5891 5894 5897 5898 5898
5732 5742 5747 5757 5769 5776 5777 5784 5790 5795 5794 5802 5799 5811 5825 5830 5834 5838 5841 5846 5851 5855 5858 5860 5859 5867 5871 5874 5877 5880 5882 5883 5883 5884 5886 5886 5886 5887 5886 5888 5889 5892 5894 5895
5715 5726 5730 5740 5750 5758 5767 5774 5779 5782 5788 5787 5802 5801 5814 5824 5826 5830 5834 5836 5841 5846 5847 5845 5851 5856 5863 5866 5871 5875 5877 5878 5879 5880 5883 5884 5884 5884 5884 5885 5886 5887 5889 5890
5701 5707 5711 5722 5734 5740 5749 5759 5765 5770 5777 5781 5787 5795 5803 5810 5816 5820 5826 5827 5829 5835 5840 5838 5846 5849 5854 5858 5865 5868 5871 5873 5874 5876 5879 5880 5880 5880 5881 5881 5882 5882 5883 5883
5688 5692 5698 5707 5720 5727 5734 5738 5752 5759 5764 5771 5773 5786 5796 5799 5806 5810 5816 5818 5821 5827 5829 5831 5838 5842 5846 5851 5857 5861 5864 5866 5868 5870 5873 5873 5875 5875 5876 5877 5876 5878 5878 5879
5674 5679 5685 5696 5707 5707 5723 5733 5743 5750 5756 5761 5766 5775 5784 5791 5794 5801 5806 5810 5815 5819 5821 5826 5829 5834 5838 5844 5848 5852 5854 5857 5861 5863 5865 5866 5867 5869 5870 5870 5871 5871 5871 5871
5655 5662 5675 5684 5694 5704 5712 5719 5732 5737 5745 5754 5758 5764 5770 5781 5784 5788 5793 5800 5804 5808 5814 5819 5821 5825 5829 5833 5838 5840 5843 5848 5850 5853 5856 5858 5859 5862 5863 5864 5865 5865 5865 5865
5635 5646 5656 5669 5681 5691 5706 5712 5718 5729 5737 5746 5752 5755 5761 5767 5774 5779 5783 5791 5795 5799 5806 5810 5813 5816 5821 5825 5828 5829 5834 5837 5839 5843 5848 5850 5851 5853 5854 5857 5857 5857 5857 5858
5612 5620 5630 5656 5660 5682 5697 5706 5712 5719 5731 5738 5745 5749 5754 5759 5765 5770 5776 5780 5786 5791 5794 5800 5804 5806 5811 5814 5815 5818 5823 5826 5830 5833 5837 5839 5842 5845 5846 5845 5847 5848 5848 5848
5596 5607 5626 5648 5652 5670 5679 5688 5701 5709 5722 5730 5737 5741 5746 5751 5756 5762 5768 5772 5778 5783 5786 5790 5793 5798 5801 5804 5805 5807 5808 5817 5821 5822 5824 5826 5831 5833 5835 5836 5837 5838 5837 5835
5586 5598 5626 5638 5644 5649 5665 5675 5689 5702 5714 5722 5727 5732 5737 5741 5746 5753 5758 5763 5769 5773 5777 5780 5783 5787 5791 5791 5791 5793 5797 5803 5806 5810 5813 5816 5818 5820 5823 5826 5827 5826 5825 5824
5579 5595 5610 5631 5636 5639 5655 5665 5674 5693 5702 5710 5716 5722 5726 5733 5738 5742 5746 5752 5757 5760 5763 5764 5767 5770 5771 5774 5777 5779 5783 5787 5789 5793 5800 5804 5806 5809 5811 5813 5814 5813 5812 5812
5577 5587 5604 5624 5632 5637 5648 5656 5669 5677 5690 5698 5705 5713 5720 5725 5728 5731 5736 5739 5744 5747 5749 5752 5755 5755 5754 5756 5759 5760 5765 5771 5771 5776 5782 5787 5791 5794 5797 5799 5799 5799 5798 5795
5574 5584 5600 5614 5624 5632 5641 5649 5659 5671 5679 5687 5694 5703 5709 5715 5719 5722 5725 5726 5731 5735 5738 5740 5737 5736 5735 5737 5737 5742 5743 5750 5756 5758 5762 5767 5772 5777 5781 5778 5780 5773 5773 5758